Location: Newark
(50.4348°N, 30.5552°E)
Time: 22:01:41
(UTC+00:00)

Altair - Pass Details

Date: 25 January 2020
Orbit: 1502 x 1682 km, 47.2° (Epoch: 19 February)

Event Time Altitude Azimuth Distance (km) Brightness Sun altitude
Rises 14:05:29 0° 288° (WNW) 4,931 10.7 3.5°
Reaches altitude 10° 14:09:48 10° 273° (W) 3,924 10.6 2.9°
Maximum altitude 14:16:18 20° 232° (SW) 3,170 10.9 2.0°
Drops below altitude 10° 14:22:42 10° 190° (S) 3,835 10.3 1.2°
Sets 14:26:53 0° 175° (S) 4,785 10.5 0.6°
